Location: Dawleys
(37.2126°N, 89.2962°W)
Time: 01:28:54
(UTC+00:00)

Daily predictions for brighter satellites

Satellite Brightness Start Highest point End
(mag) Time Altitude Azimuth Time Altitude Azimuth Time Altitude Azimuth
Cosmos 1486 Rocket 4.4 01:20:17 10° SSW 01:25:35 72° WNW 01:30:56 10° NNE
Cosmos 1745 Rocket 4.3 01:23:32 10° N 01:29:26 45° E 01:35:15 10° SSE
SL-4 R/B 3.1 01:26:01 10° WNW 01:30:10 44° SW 01:34:34 10° SSE
Cosmos 1844 4.3 01:26:53 10° SSW 01:32:34 64° WNW 01:38:12 10° NNE
SL-08 ROCKET BODY 4.3 01:30:59 10° N 01:36:52 80° E 01:42:42 10° S
Cosmos 1242 Rocket 2.6 01:38:12 10° S 01:41:41 52° E 01:45:08 10° NNE
USA 186 1.1 01:39:48 10° S 01:42:17 80° WSW 01:44:39 10° NNW
Resurs 01 Rocket 3.1 01:41:39 11° ESE 01:44:48 21° ENE 01:48:08 10° NNE
GPS 2-04 Rocket1 2.8 01:40:59 10° WSW 01:45:06 66° S 01:49:09 10° E
S3M 4.0 01:39:36 10° S 01:45:58 77° E 01:52:18 10° N
X-37B 1.5 01:48:41 10° NW 01:51:46 42° NNE 01:54:18 14° E
Cosmos 2315 Rocket 4.3 01:50:38 10° SSE 01:56:39 48° E 02:02:44 10° NNE
Delta 2 Rocket 3.9 01:53:37 10° WSW 01:58:47 57° SSE 02:03:03 12° E
OBJECT-B 1.0 01:56:23 10° S 01:59:36 70° W 02:02:50 10° NNW
Cosmos 1805 Rocket 3.7 01:56:24 10° N 02:00:45 77° W 02:05:06 10° S
ERS-2 3.9 01:58:00 10° N 02:01:20 35° WNW 02:04:40 10° SW
Cosmos 1633 Rocket 3.6 02:01:06 10° N 02:05:15 39° E 02:07:58 19° SE
Cosmos 1328 Rocket 3.8 02:05:07 10° SSE 02:09:23 50° E 02:13:40 10° NNE
USA 267 3.9 02:03:09 10° SSE 02:09:29 50° SW 02:15:50 10° NW
ISS -2.7 02:11:01 10° SSW 02:13:26 26° SSE 02:13:26 26° SSE
Cosmos 1777 Rocket 3.9 02:10:25 10° S 02:15:34 70° ESE 02:20:46 10° NNE
USA 290 3.4 02:14:15 10° NW 02:17:17 39° WSW 02:19:47 13° S
Cosmos 1470 Rocket 4.5 02:15:46 10° NNE 02:19:49 32° ENE 02:21:26 25° ESE
Meteor 1-26 Rocket 4.2 02:14:52 10° S 02:20:34 88° W 02:26:08 10° N
Cosmos 2082 Rocket 3.9 02:16:42 10° N 02:20:36 19° NE 02:23:13 14° E
Ariane Rocket 3.0 02:16:50 12° S 02:21:27 81° WSW 02:26:33 10° NNW
Cosmos 1602 3.6 02:19:44 10° N 02:23:37 81° E 02:25:55 23° SSE
Cosmos 1437 2.3 02:25:45 26° SSW 02:27:12 84° W 02:30:02 10° N
Tianhe-1 1.4 02:25:23 10° SW 02:28:15 43° SSE 02:28:15 43° SSE
Resurs 1-3 3.9 02:27:18 16° S 02:30:44 67° WSW 02:35:07 10° NNW
IRIS 3.6 02:29:28 10° WNW 02:31:48 78° NNE 02:32:05 66° E
ARIANE 5 R/B 4.0 02:31:08 20° E 02:31:58 21° ENE 02:35:14 10° NNE
OAO 3 Rocket 3.5 02:28:38 10° SW 02:32:59 40° SSE 02:34:13 33° SE
COSMOS 2406 3.7 02:28:56 10° N 02:34:24 46° ENE 02:36:56 28° ESE
Cosmos 1782 3.4 02:30:40 10° SSW 02:34:36 58° W 02:38:32 10° N
Cosmos 1666 Rocket 3.7 02:31:23 10° NNW 02:35:45 71° W 02:38:36 21° S
DELTA 2 R/B (1) 4.3 02:30:47 10° W 02:35:58 40° SSW 02:38:23 26° SSE
Cosmos 1943 Rocket 4.2 02:39:12 12° ENE 02:39:12 12° ENE 02:39:59 10° ENE
Cosmos 1812 2.6 02:37:33 37° SSE 02:38:51 63° E 02:42:40 10° NNE
SJ 16-02 1.3 02:36:32 23° S 02:39:12 62° ESE 02:43:35 10° NNE
Cosmos 2278 Rocket 2.2 02:35:04 10° SSW 02:40:43 85° WNW 02:46:25 10° NNE
Meteor 1-14 Rocket 4.2 02:38:06 10° N 02:43:54 74° E 02:46:52 30° SSE
Meteor 2-6 Rocket 4.1 02:41:00 24° S 02:44:15 64° E 02:49:42 10° NNE
Iridium 4 Rocket 4.3 02:42:48 31° SE 02:44:52 42° E 02:50:23 10° NNE
Cosmos 1666 3.6 02:42:21 10° NNE 02:45:30 31° ENE 02:45:30 31° ENE
Landsat 7 3.7 02:45:52 35° SSE 02:47:54 80° ENE 02:52:40 10° N
Cosmos 1151 Rocket 4.4 02:47:57 10° SSW 02:52:01 38° WNW 02:56:07 10° N
Meteor 1-27 Rocket 4.4 02:52:26 33° ESE 02:53:23 35° E 02:58:40 10° NNE
USA 305 4.0 02:52:38 10° NNW 02:56:32 34° NE 02:57:39 29° ENE
ATLAS 5 CENTAUR R/B 3.3 02:51:34 10° NW 02:57:15 43° WSW 03:01:21 21° S
CZ-4C R/B 3.0 02:52:53 10° NNW 03:00:30 84° ENE 03:04:45 34° SE
NOSS 3-4 (A) 4.4 02:56:53 10° NNW 03:03:45 49° NE 03:07:09 31° ESE
NOSS 3-4 (C) 4.4 02:57:00 10° NNW 03:03:52 48° NE 03:07:15 31° ESE
IGS 5A 4.0 03:03:39 35° SSW 03:05:03 52° W 03:09:06 10° NNW
SPOT 1/Viking Rocket 3.5 03:03:30 45° SSE 03:05:07 79° ENE 03:10:20 10° N
Cosmos 1500 4.1 03:12:26 10° NNW 03:15:57 40° W 03:16:32 37° WSW
USA 306 3.4 03:11:59 10° NW 03:16:07 47° NE 03:16:24 46° NE
ATLAS 2AS CENTAUR R/B 3.8 03:10:23 10° NNW 03:16:57 34° NE 03:19:41 26° E
Cosmos 2154 Rocket 4.3 03:11:22 10° N 03:17:25 46° ENE 03:18:30 42° ESE
Cosmos 1833 Rocket 2.7 03:14:31 10° NNW 03:20:09 72° WSW 03:21:40 49° S
SPOT 3 Rocket 4.4 03:18:17 27° SSW 03:20:37 43° W 03:25:31 10° NNW
Resurs 01 Rocket 3.1 03:19:13 23° SW 03:21:04 31° W 03:25:03 10° NW
Cosmos 2228 Rocket 3.0 03:21:24 71° ENE 03:21:24 71° ENE 03:25:39 10° NNE
Nadezhda 1 Rocket 4.0 03:21:49 50° SSE 03:23:20 65° E 03:29:31 10° NNE
Cosmos 2184 Rocket 3.9 03:18:14 10° N 03:24:27 80° E 03:26:01 52° SSE
GPS 2-04 Rocket1 3.5 03:20:23 10° W 03:23:21 43° WSW 03:23:21 43° WSW
Cosmos 1536 4.1 03:21:59 10° N 03:24:37 30° NE 03:24:37 30° NE
Cosmos 2074 Rocket 3.9 03:20:02 10° N 03:26:22 86° E 03:28:08 51° SSE
Meteor 1-11 Rocket 3.8 03:21:18 10° N 03:27:14 65° E 03:28:07 57° ESE
X-37B 3.1 03:25:32 10° W 03:26:35 17° W 03:26:35 17° W
Spot 2 Rocket 3.4 03:28:10 66° S 03:28:51 83° WSW 03:33:56 10° NNW
Cosmos 1538 Rocket 4.2 03:24:19 10° NNW 03:29:37 66° WSW 03:30:36 54° SSW
ERS-1 Rocket 2.9 03:29:55 64° E 03:30:07 65° ENE 03:35:06 10° N
Cosmos 1937 Rocket 4.3 03:33:12 35° ENE 03:33:12 35° ENE 03:36:42 10° NNE
Delta 2 Rocket 4.2 03:36:13 10° W 03:39:54 48° WSW 03:39:54 48° WSW
Cosmos 2297 3.5 03:42:08 74° SE 03:42:18 75° ESE 03:47:59 10° NNE
Cosmos 1869 Rocket 4.0 03:38:58 10° N 03:42:25 54° NNE 03:42:25 54° NNE
USA 307 3.4 03:39:30 10° NW 03:42:59 57° NNW 03:42:59 57° NNW
Cosmos 1680 Rocket 3.8 03:39:56 10° N 03:44:59 53° ENE 03:44:59 53° ENE
Cosmos 967 Rocket 4.3 03:45:38 51° SSW 03:47:23 88° ESE 03:53:41 10° NNE
Cosmos 1271 Rocket 4.4 03:46:58 29° W 03:47:32 30° WNW 03:51:06 10° NNW
Cosmos 1610 Rocket 4.3 03:43:40 10° N 03:49:49 83° E 03:50:27 72° SSE
Milstar 3 3.6 03:41:19 10° WSW 03:54:50 52° S 03:56:12 49° SSE
Terra 2.1 03:56:00 64° N 03:56:00 64° N 04:00:06 10° N
USA 308 3.9 03:53:12 10° NW 03:56:12 44° NW 03:56:12 44° NW
H-2A R/B 4.5 03:54:50 10° N 03:57:45 44° N 03:57:45 44° N
Cosmos 44 4.1 03:54:28 10° NNW 03:59:24 46° NE 03:59:24 46° NE
Cosmos 2082 Rocket 2.4 03:59:33 10° NNW 04:05:04 60° WSW 04:05:04 60° WSW
ARIANE 5 R/B 4.1 04:08:41 29° W 04:08:41 29° W 04:12:02 10° NW
Cosmos 1295 Rocket 4.4 04:05:10 10° N 04:11:31 77° W 04:11:59 73° SW
SPOT 5 3.6 04:12:49 48° W 04:12:49 48° W 04:17:43 10° NNW
Cosmos 1818 4.4 04:09:17 10° NNW 04:14:10 42° NE 04:14:10 42° NE
Cosmos 1898 Rocket 4.1 04:14:19 49° W 04:14:49 51° WNW 04:20:01 10° N
Cosmos 2341 Rocket 4.0 04:09:54 10° N 04:16:10 70° ENE 04:16:10 70° ENE
SJ 16-02 4.4 04:16:44 10° W 04:18:11 11° WNW 04:19:39 10° NW
Cosmos 1943 Rocket 2.3 04:20:39 70° NW 04:20:39 70° NW 04:26:01 10° NNE
Cosmos 2218 Rocket 4.4 04:21:00 10° N 04:26:40 53° ENE 04:26:40 53° ENE
Cosmos 2369 Rocket 2.9 04:33:00 45° NE 04:33:00 45° NE 04:36:54 10° NNE
SL-8 Rocket 4.1 04:39:28 10° N 04:45:15 75° NNW 04:45:15 75° NNW
Cosmos 1238 Rocket 4.2 04:41:14 10° N 04:45:44 52° NNW 04:45:44 52° NNW
Gbstr 26 Del rocket 4.3 04:56:35 10° NW 05:03:26 59° NNE 05:03:26 59° NNE
ATLAS 2AS CENTAUR R/B 3.3 05:01:17 10° NW 05:07:06 45° W 05:07:06 45° W
Meteor 2-4 Rocket 4.4 05:12:55 52° N 05:12:55 52° N 05:17:10 10° N
Cosmos 1821 Rocket 4.4 05:40:20 10° N 05:45:32 61° NNW 05:45:32 61° NNW
SeaSat 1 4.1 05:58:33 10° NNE 06:01:03 30° NE 06:01:03 30° NE
ATLAS CENTAUR R/B 4.4 06:06:18 12° N 06:06:18 12° N 06:06:46 10° N
Cosmos 2369 Rocket 4.4 06:14:45 15° WNW 06:15:54 16° NW 06:19:15 10° NNW
Lacrosse 5 3.3 06:27:22 35° N 06:27:22 35° N 06:30:34 10° NNE
CZ-2D R/B 4.0 06:30:01 10° NE 06:33:07 21° ENE 06:33:07 21° ENE
Resurs 1-4 Rocket 3.8 06:36:00 10° NE 06:39:15 24° ENE 06:39:15 24° ENE
USA 215 3.8 06:39:06 29° E 06:42:21 53° NE 06:48:40 10° NW
USA 281 4.2 06:49:16 32° ESE 06:51:33 42° ENE 06:57:39 10° N
Cosmos 1605 Rocket 4.3 06:46:21 10° N 06:51:32 60° NW 06:51:32 60° NW
Cosmos 1980 Rocket 4.4 06:54:09 14° E 06:54:09 14° E 06:56:51 10° ENE
Cosmos 2227 Rocket 3.6 07:03:54 10° N 07:08:58 33° ENE 07:10:57 26° E
Cosmos 2297 Rocket 3.0 07:06:19 10° N 07:11:46 46° ENE 07:12:28 43° E
Cosmos 1656 3.9 07:26:41 61° NNW 07:26:41 61° NNW 07:31:24 10° NNE
Cosmos 1025 Rocket 4.4 07:31:57 35° ENE 07:31:57 35° ENE 07:35:07 10° NNE
Cosmos 2100 Rocket 3.9 07:26:16 10° N 07:32:36 89° W 07:32:47 86° S
Cosmos 2251 Rocket 3.8 07:28:35 10° NNW 07:33:17 66° NNE 07:33:17 66° NNE
Cosmos 2123 Rocket 4.1 07:33:54 61° ESE 07:34:29 64° E 07:40:36 10° NNE
Cosmos 1802 Rocket 4.0 07:28:42 10° N 07:34:50 70° E 07:35:31 64° ESE
Cosmos 614 Rocket 4.3 07:32:51 10° N 07:37:53 58° ENE 07:37:57 58° ENE
IDEFIX/ARIANE 42P 4.3 07:43:01 10° NE 07:47:12 23° E 07:48:53 20° ESE
Cosmos 371 Rocket 4.1 07:48:59 44° NW 07:48:59 44° NW 07:52:52 10° N
COSMOS 2455 2.9 07:42:11 10° NNW 07:47:29 63° WNW 07:47:29 63° WNW
Helios 1B rocket 3.6 07:45:01 10° N 07:47:45 40° N 07:47:45 40° N
Cosmos 332 Rocket 4.0 07:53:44 64° NNW 07:53:44 64° NNW 07:57:59 10° NNE
Cosmos 2219 3.0 07:50:40 10° NNW 07:56:24 86° WSW 07:56:43 80° S
SL-16 R/B 2.4 08:00:37 65° SSW 08:01:24 74° WSW 08:07:41 10° NNW
Lacrosse 4 Rocket 1.9 08:02:37 63° NNE 08:02:37 63° NNE 08:06:24 10° NNE
Cosmos 1544 Rocket 3.8 08:00:32 10° N 08:04:39 68° NE 08:04:39 68° NE
Cosmos 1953 3.5 08:01:57 10° N 08:04:27 37° NNW 08:04:27 37° NNW
ADEOS II 2.0 08:01:01 10° NNE 08:06:16 74° ESE 08:06:52 66° SSE
Lacrosse 5 4.4 08:07:16 10° NW 08:09:40 13° NNW 08:12:05 10° N
AQUA 3.9 08:06:41 10° N 08:11:12 64° WNW 08:11:12 64° WNW
SL-08 R/B 4.4 08:05:18 10° N 08:11:42 85° W 08:13:31 51° S
NPP 3.9 08:08:30 10° N 08:13:43 53° WNW 08:14:01 52° W
CZ-2D R/B 2.7 08:09:15 10° N 08:14:17 42° WNW 08:14:26 41° WNW
Cosmos 1455 Rocket 4.1 08:10:46 10° NNW 08:13:38 36° NW 08:13:38 36° NW
ADEOS Rocket 3.8 08:12:28 13° SSE 08:19:12 67° ENE 08:26:55 10° N
Resurs 1-4 Rocket 2.9 08:15:25 10° N 08:20:09 35° WNW 08:20:20 35° WNW
Cosmos 1536 Rocket 3.5 08:20:10 81° ESE 08:20:15 81° E 08:24:42 10° N
BREEZE-M DEB (TANK) 3.8 08:19:53 33° WNW 08:21:53 52° NNW 08:34:49 10° ENE
Meteor 2-5 Rocket 3.9 08:21:34 40° SSE 08:23:36 66° E 08:29:10 10° NNE
Cosmos 1697 Rocket 3.1 08:24:06 42° W 08:24:53 45° WNW 08:30:16 10° N
Cosmos 2360 4.4 08:24:06 49° W 08:25:02 55° WNW 08:30:41 10° NNE
USA 215 3.7 08:26:21 39° WSW 08:26:21 39° WSW 08:31:31 10° WNW
Cosmos 407 Rocket 3.5 08:21:56 10° NNW 08:27:19 86° ENE 08:29:41 35° SSE
Cosmos 1725 Rocket 4.0 08:21:58 10° NNW 08:28:06 61° W 08:29:35 48° SW
Atlas Centaur 2 3.9 08:28:29 25° S 08:29:18 25° SSE 08:34:48 10° ESE
GP-B 3.0 08:25:47 10° N 08:30:14 88° E 08:30:46 69° S
Meteor 1-16 Rocket 4.5 08:25:04 10° NNW 08:30:44 50° W 08:31:25 47° WSW
CZ-4C R/B 4.2 08:29:51 26° SE 08:31:59 52° ENE 08:36:03 10° N
Cosmos 1624 Rocket 4.0 08:32:24 55° SW 08:33:24 69° WNW 08:38:44 10° NNE
SL-14 R/B 3.4 08:34:44 61° NW 08:34:44 61° NW 08:38:19 10° N
CBERS-1 3.9 08:29:49 10° NNE 08:34:57 90° WNW 08:36:21 50° SSW
USA 281 3.8 08:36:07 34° WSW 08:36:07 34° WSW 08:41:55 10° NW
Cosmos 2233 Rocket 3.8 08:30:52 10° N 08:37:03 82° W 08:40:08 32° S
Cosmos 1980 Rocket 2.2 08:35:56 49° SW 08:37:25 71° WNW 08:43:06 10° NNE
CENTAUR R/B 4.3 08:34:15 11° SSE 08:38:05 21° ESE 08:42:34 10° ENE
Cosmos 1626 3.6 08:42:30 26° NW 08:42:30 26° NW 08:44:50 10° NNW
Cosmos 2016 Rocket 4.5 08:36:22 10° NNW 08:42:03 39° W 08:43:03 36° WSW
ISS -0.9 08:41:53 10° NNW 08:44:28 20° NNE 08:47:03 10° ENE
Spot 1 4.3 08:46:49 23° SSE 08:49:46 81° ENE 08:54:41 10° N
DELTA 2 DEB (DPAF) 4.3 08:51:43 48° WSW 08:52:09 50° W 08:56:30 10° NNW
Cosmos 1452 Rocket 4.0 08:49:49 25° S 08:52:45 56° ESE 08:57:55 10° NNE
Cosmos 2227 Rocket 3.0 08:48:00 10° NW 08:52:41 31° W 08:52:41 31° W
Cosmos 2056 Rocket 4.0 08:53:58 36° WSW 08:55:13 42° WNW 09:00:04 10° N
Cosmos 2297 Rocket 3.6 08:51:10 10° NW 08:54:12 21° W 08:54:12 21° W
Cosmos 1954 Rocket 4.3 08:50:22 10° NNW 08:55:39 70° ENE 09:00:56 10° SSE
Cosmos 2285 Rocket 4.3 08:55:09 33° SW 08:57:47 54° WNW 09:04:05 10° N
Cosmos 220 Rocket 4.0 08:56:53 41° SSW 08:58:25 87° E 09:02:51 10° NNE
Cosmos 1300 2.6 08:55:24 10° NNW 08:59:10 64° W 08:59:48 53° SW
Cosmos 2278 4.0 08:57:34 34° WSW 08:59:44 53° WNW 09:05:19 10° NNE
Cosmos 1346 Rocket 3.8 09:04:05 17° SSE 09:06:49 43° E 09:10:33 10° NNE
IRS-1C 4.1 09:01:34 10° N 09:06:55 80° WNW 09:10:05 25° SSW
CZ-2C R/B 4.0 09:03:13 10° NNE 09:07:55 35° E 09:12:37 10° SSE
Cosmos 2082 3.9 09:03:19 10° NW 09:08:46 47° WSW 09:12:48 18° S
OAO 2 Rocket 3.4 09:08:21 29° WSW 09:11:00 70° S 09:16:19 10° E
SL-16 R/B 2.6 09:08:41 18° S 09:12:53 61° ESE 09:18:28 10° NNE
Cosmos 1455 4.1 09:11:37 10° NNE 09:15:03 31° ENE 09:18:29 10° SE
MSX 3.8 09:09:31 10° N 09:15:18 73° WNW 09:19:17 21° SSW
Cosmos 1140 Rocket 4.2 09:16:45 10° NW 09:21:22 32° W 09:23:28 24° SW
SL-08 R/B 3.3 09:17:27 10° SSE 09:22:10 84° ENE 09:26:49 10° NNW
Cosmos 1892 Rocket 3.5 09:21:24 16° S 09:24:51 83° E 09:29:12 10° N
Cosmos 1340 3.8 09:24:28 25° W 09:25:10 26° WNW 09:28:22 10° NNW
IDEFIX/ARIANE 42P 3.3 09:21:59 10° N 09:26:50 38° WNW 09:29:42 21° SW
NOSS 3-2 (C) 4.1 09:24:42 11° S 09:29:36 45° ESE 09:35:19 10° NE
Cosmos 1072 Rocket 4.5 09:23:40 10° N 09:30:01 80° W 09:36:24 10° S
USA 32 4.3 09:32:17 10° N 09:37:34 74° E 09:42:48 10° S
Okean 1-7 Rocket 3.9 09:35:24 10° S 09:39:54 69° E 09:44:27 10° NNE
Cosmos 2322 Rocket 2.3 09:34:49 12° SSW 09:40:08 81° ESE 09:45:51 10° NNE
Meteor 2-10 Rocket 3.7 09:35:10 10° NNW 09:40:45 61° W 09:46:06 10° S
CZ-2C R/B 3.1 09:38:16 10° NNE 09:42:17 70° E 09:46:18 10° S
Cosmos 1891 Rocket 4.5 09:37:51 10° NNW 09:43:46 58° W 09:49:38 10° S
ADEOS II 4.1 09:42:55 10° NW 09:45:17 13° WNW 09:47:38 10° W
ARIANE 5 R/B 3.0 09:41:19 10° N 09:46:06 42° WNW 09:50:05 14° SW
Cosmos 2058 Rocket 3.3 09:42:15 10° N 09:46:47 77° E 09:51:17 10° S
Cosmos 2263 Rocket 2.1 09:42:35 10° NNW 09:48:13 69° WSW 09:53:50 10° S
Cosmos 1726 Rocket 3.6 09:45:09 10° NNW 09:49:27 57° W 09:53:47 10° S
Cosmos 1606 Rocket 4.0 09:45:21 10° NNW 09:49:31 43° W 09:53:43 10° SSW
Cosmos 2228 3.8 09:47:22 10° NNW 09:51:11 32° W 09:55:03 10° SSW
NOSS 3-2 (A) 3.4 09:47:34 15° SW 09:52:09 66° NW 09:58:19 10° NNE
CZ-4B R/B 4.4 09:51:55 10° N 09:56:19 31° WNW 10:00:26 12° SW
Meteor 1-21 Rocket 4.2 09:53:00 10° S 09:58:37 83° W 10:04:11 10° N
Tsikada Rocket 4.1 09:56:06 10° S 10:02:30 81° W 10:08:54 10° N
Cosmos 2360 Rocket 2.5 09:57:12 10° SSW 10:02:49 70° ESE 10:08:28 10° NNE
Cosmos 2219 Rocket 4.4 09:58:50 10° SSE 10:03:18 25° ESE 10:07:47 10° NE
USA 238 DEB 3.7 09:59:32 10° SW 10:06:01 73° WNW 10:12:49 10° NNE
USA 238 3.7 09:59:39 10° SW 10:06:08 73° NW 10:12:56 10° NNE
IRAS Rocket 4.4 10:01:19 10° SSE 10:06:52 82° ENE 10:12:31 10° NNW
Cosmos 1241 Rocket 4.5 10:01:04 10° NNW 10:07:31 76° WSW 10:13:47 10° SSE
Aureole 2 Rocket 3.7 10:08:05 10° WNW 10:09:35 14° W 10:11:05 10° SW
Cosmos 2237 4.2 10:05:56 10° SSW 10:11:39 80° WNW 10:17:23 10° NNE
Cosmos 1441 Rocket 3.8 10:08:31 10° S 10:12:23 64° E 10:16:20 10° NNE
BREEZE-M DEB (TANK) 3.9 10:04:04 10° NW 10:14:28 50° SW 10:17:48 10° SSE
Cosmos 1602 Rocket 4.0 10:10:30 10° S 10:14:46 67° E 10:19:07 10° NNE
Atlas Centaur 2 3.2 10:11:24 10° WSW 10:18:16 41° S 10:23:52 10° ESE
ISS -3.6 10:18:11 10° WNW 10:21:28 51° SW 10:24:45 10° SSE
Cosmos 1980 Rocket 4.4 10:21:49 10° NW 10:22:27 10° NW 10:23:06 10° NW
Cosmos 1626 Rocket 3.6 10:18:31 10° SSW 10:22:51 67° W 10:27:16 10° N
Cosmos 1302 Rocket 4.2 10:19:08 10° SSW 10:24:24 83° ESE 10:29:44 10° NNE
Cosmos 2034 Rocket 4.4 10:20:15 10° NNW 10:26:11 43° W 10:32:02 10° SSW
